Weather History for Clemson, SC

Change the Weather History Date:

Sunday, March 9, 2014

  Actual Average Record
Temperature  
Mean Temperature 62 °F -  
Max Temperature 73 °F 62 °F 86 °F (2009)
Min Temperature 50 °F 35 °F 19 °F (1975)
Degree Days  
Heating Degree Days 4    
Growing Degree Days 12 (Base 50)    
Moisture  
Dew Point 35 °F    
Average Humidity 38    
Maximum Humidity 59    
Minimum Humidity 25    
Precipitation  
Precipitation 0.00 in - - ()
Sea Level Pressure  
Sea Level Pressure 30.05 in    
Wind  
Wind Speed 9 mph (West)    
Max Wind Speed 16 mph    
Max Gust Speed 23 mph    
Visibility 10 miles    
Events      
Averages and records for this station are not official NWS values.
T = Trace of Precipitation, MM = Missing Value Source: NWS Daily Summary

Daily Weather History Graph

Daily Weather History Graph

Search for Another Location

Airport:

Trip Planner

Search our weather history database for the weather conditions in past years. The results will help you decide how hot, cold, wet, or windy it might be!

Date:

Astronomy

Mar. 09, 2014 Rise Set
Actual Time 7:50 AM EDT 7:34 PM EDT
Civil Twilight 7:25 AM EDT 7:59 PM EDT
Nautical Twilight 6:55 AM EDT 8:28 PM EDT
Astronomical Twilight 6:26 AM EDT 8:57 PM EDT
Moon 1:36 PM EDT (3/9) 3:04 AM EDT (3/9)
Length of Visible Light 12h 34m
Length of Day
11h 44m
First Quarter, 61% of the Moon is Illuminated
Mar 9
First Quarter
Mar 16
Full
Mar 23
Last Quarter
Mar 30
New
Apr 7
First Quarter

Hourly Weather History & Observations

Time (EDT) Temp. Dew Point Humidity Pressure Visibility Wind Dir Wind Speed Gust Speed Precip Events Conditions
12:54 AM 55.0 °F 36.0 °F 49% 30.05 in 10.0 mi WSW 9.2 mph - N/A   Clear
1:54 AM 55.9 °F 35.1 °F 45% 30.04 in 10.0 mi WSW 10.4 mph - N/A   Clear
3:54 AM 55.0 °F 35.1 °F 47% 30.04 in 10.0 mi WSW 9.2 mph - N/A   Clear
4:54 AM 53.1 °F 35.1 °F 50% 30.04 in 10.0 mi West 9.2 mph - N/A   Clear
5:54 AM 53.1 °F 35.1 °F 50% 30.04 in 10.0 mi WSW 6.9 mph - N/A   Clear
6:54 AM 50.0 °F 36.0 °F 59% 30.07 in 10.0 mi West 9.2 mph - N/A   Clear
7:54 AM 50.0 °F 36.0 °F 59% 30.09 in 10.0 mi West 9.2 mph - N/A   Clear
8:54 AM 53.1 °F 36.0 °F 52% 30.10 in 10.0 mi WSW 9.2 mph - N/A   Clear
9:54 AM 60.1 °F 39.0 °F 46% 30.11 in 10.0 mi West 5.8 mph - N/A   Clear
10:54 AM 64.0 °F 37.9 °F 38% 30.11 in 10.0 mi WSW 6.9 mph - N/A   Clear
11:54 AM 66.9 °F 37.0 °F 33% 30.10 in 10.0 mi West 9.2 mph - N/A   Clear
12:54 PM 69.1 °F 37.0 °F 31% 30.07 in 10.0 mi Variable 4.6 mph - N/A   Clear
1:54 PM 71.1 °F 37.0 °F 29% 30.05 in 10.0 mi Variable 5.8 mph - N/A   Clear
2:54 PM 73.9 °F 37.9 °F 27% 30.02 in 10.0 mi WSW 12.7 mph 16.1 mph N/A   Clear
3:54 PM 73.9 °F 37.9 °F 27% 30.01 in 9.0 mi West 16.1 mph 23.0 mph N/A   Clear
4:54 PM 73.9 °F 37.0 °F 26% 29.99 in 7.0 mi SW 8.1 mph - N/A   Clear
5:54 PM 73.9 °F 36.0 °F 25% 29.99 in 10.0 mi West 16.1 mph - N/A   Clear
6:54 PM 71.1 °F 35.1 °F 27% 29.99 in 10.0 mi West 15.0 mph 19.6 mph N/A   Clear
7:54 PM 66.9 °F 34.0 °F 30% 30.01 in 10.0 mi West 11.5 mph - N/A   Clear
8:54 PM 64.0 °F 32.0 °F 30% 30.02 in 10.0 mi West 10.4 mph - N/A   Clear
9:54 PM 60.1 °F 30.9 °F 33% 30.04 in 10.0 mi West 9.2 mph - N/A   Clear
10:54 PM 57.0 °F 30.0 °F 36% 30.05 in 10.0 mi West 9.2 mph - N/A   Clear
11:54 PM 55.0 °F 28.9 °F 37% 30.06 in 10.0 mi West 6.9 mph - N/A   Clear
12:54 AM 55.9 °F 28.0 °F 34% 30.06 in 10.0 mi West 11.5 mph - N/A   Clear